Temp
92 93 93 92 91 90 88 88 88 88 86 83 84 83 83 83 84 86 86 86 88 88 89 90 89 88 87 87 87 87 86 86 87
90 93 94 92 93 91 89 89 88 88 87 85 85 86 84 83 83 83 86 85 86 88 87 90 87 87 86 86 86 86 86 87 84
90 93 93 93 93 92 92 93 93 91 89 86 85 87 86 86 85 84 85 85 84 86 87 86 86 86 86 87 87 87 84 84 85
91 92 94 95 93 93 93 93 93 92 89 88 87 88 88 87 87 86 85 86 85 85 88 86 84 84 85 85 85 86 84 85 85
92 92 94 95 95 92 89 90 91 89 89 89 89 87 86 87 86 86 88 86 87 87 86 87 85 84 84 84 85 84 83 85 86
89 89 91 94 98 93 87 87 87 88 87 90 93 88 89 88 87 87 87 88 88 87 85 86 88 86 84 84 85 84 84 83 82
88 86 88 91 96 97 88 87 86 85 88 88 92 91 90 88 88 89 89 88 87 88 85 85 86 86 84 84 84 84 83 83 83
83 86 88 89 89 91 88 85 85 84 88 87 88 86 88 87 88 89 88 86 86 86 86 86 85 84 84 84 83 82 82 83 82
80 82 83 86 89 88 86 85 83 84 84 86 86 83 85 85 84 84 84 84 83 84 84 84 84 84 83 82 82 71 72 78 79
79 79 80 81 83 87 90 89 86 85 84 86 84 82 83 83 82 82 82 83 82 82 82 82 80 81 82 81 80 68 70 73 83
78 78 79 80 84 86 88 93 92 86 86 82 82 81 81 82 82 82 82 80 80 80 81 78 80 80 78 77 79 67 68 71 82
78 79 81 84 86 86 85 87 88 84 82 81 82 81 81 81 82 81 78 78 79 80 78 80 74 75 74 76 78 66 65 71 79
79 82 83 83 85 87 87 87 87 84 83 81 80 81 82 81 82 79 78 77 75 77 75 70 76 77 78 71 78 60 64 69 82
79 81 82 84 86 85 85 88 88 83 84 82 83 82 81 79 79 77 72 72 73 70 70 73 74 76 76 71 71 66 59 60 77
77 80 82 83 83 85 88 86 86 83 81 82 79 80 77 75 75 76 75 70 70 68 70 71 74 74 73 71 67 60 58 58 59
78 79 80 83 82 83 82 83 84 81 77 78 77 76 74 75 75 75 74 69 68 70 72 74 77 78 75 71 70 69 58 58 58
77 79 79 80 80 79 75 79 80 78 76 77 76 75 74 73 73 72 75 76 75 75 77 78 77 75 71 70 69 69 68 68 69
76 77 78 74 74 72 71 73 72 73 74 75 74 75 72 70 69 65 63 62 68 68 61 69 72 70 71 71 68 61 52 54 63
74 73 74 69 67 69 68 68 69 71 75 76 75 73 73 71 71 70 68 64 60 50 50 49 47 48 58 60 51 47 46 45 46
66 70 70 66 64 66 69 70 72 73 74 72 70 68 67 65 66 69 67 67 64 58 53 48 47 46 46 46 45 45 44 45 47
MSLP
1000.06 1000.95 1001.88 1002.77 1003.50 1004.48 1005.46 1006.31 1007.16 1007.89 1008.66 1009.37 1010.14 1010.75 1011.14 1011.68 1012.18 1012.60 1012.98 1013.31 1013.42 1013.63 1013.69 1013.83 1014.10 1014.21 1014.24 1014.30 1014.34 1014.57 1014.88 1015.08 1015.10
999.49 1000.06 1000.82 1001.73 1002.57 1003.58 1004.43 1005.27 1006.06 1006.82 1007.77 1008.59 1009.25 1009.81 1010.51 1011.08 1011.60 1012.10 1012.25 1012.64 1013.06 1013.26 1013.50 1013.65 1013.95 1014.04 1014.11 1014.17 1014.25 1014.55 1014.71 1014.68 1014.78
999.43 999.85 1000.31 1001.05 1001.81 1002.67 1003.36 1004.00 1005.02 1006.07 1006.78 1007.35 1007.94 1008.75 1009.54 1010.03 1010.63 1011.27 1011.67 1012.13 1012.41 1012.66 1012.99 1013.32 1013.46 1013.55 1013.68 1013.75 1013.80 1013.99 1014.09 1014.17 1014.33
999.04 999.54 1000.02 1000.32 1000.77 1001.64 1002.35 1003.06 1004.06 1004.78 1005.80 1006.50 1007.29 1007.85 1008.42 1009.08 1009.64 1010.29 1010.89 1011.22 1011.68 1012.13 1012.42 1012.65 1012.88 1012.93 1013.06 1013.16 1013.17 1013.29 1013.44 1013.50 1013.72
999.09 999.16 999.28 999.80 1000.34 1000.98 1001.73 1002.40 1003.02 1003.96 1004.73 1005.57 1006.11 1006.72 1007.56 1008.16 1008.88 1009.52 1009.97 1010.42 1010.80 1011.20 1011.41 1011.77 1012.06 1012.23 1012.45 1012.65 1012.78 1013.07 1013.28 1013.21 1013.44
999.38 999.07 998.98 999.31 999.60 1000.28 1001.26 1001.76 1002.44 1003.13 1003.98 1004.38 1004.94 1006.01 1006.68 1007.36 1007.97 1008.61 1008.95 1009.30 1009.72 1010.28 1010.73 1010.94 1011.31 1011.82 1011.99 1012.17 1012.39 1012.59 1012.51 1013.03 1013.34
999.81 999.56 999.17 999.00 999.25 999.41 1000.35 1001.05 1001.61 1002.34 1002.94 1003.46 1004.13 1005.02 1005.70 1006.31 1006.90 1007.15 1007.64 1008.24 1008.88 1009.33 1010.00 1010.50 1010.85 1011.03 1011.14 1011.25 1011.43 1011.54 1011.75 1011.30 1012.17
1000.11 999.98 999.66 999.52 999.57 999.33 999.83 1000.48 1001.17 1001.74 1002.14 1002.80 1003.46 1004.09 1004.72 1005.31 1005.75 1006.25 1006.85 1007.48 1008.04 1008.81 1009.46 1009.89 1010.33 1010.50 1010.78 1011.02 1011.22 1011.38 1011.54 1011.51 1011.59
1000.64 1000.64 1000.48 1000.12 999.93 999.94 999.79 999.84 999.96 1000.65 1001.33 1001.97 1002.66 1003.34 1003.96 1004.58 1005.15 1005.66 1006.15 1006.76 1007.67 1008.48 1009.08 1009.39 1009.66 1010.36 1010.83 1011.18 1011.24 1011.24 1011.38 1010.67 1011.11
1001.30 1001.09 1000.84 1000.60 1000.15 999.50 999.07 999.11 999.52 999.90 1000.29 1001.02 1001.89 1002.55 1003.31 1003.98 1004.50 1004.99 1005.62 1006.50 1007.36 1008.05 1008.48 1008.83 1009.40 1009.74 1009.78 1010.23 1010.99 1011.48 1011.61 1011.27 1011.06
1001.81 1001.34 1000.79 1000.17 999.60 999.17 998.72 998.07 998.12 998.97 999.79 1000.65 1001.02 1001.78 1002.33 1002.88 1003.59 1004.33 1005.53 1006.51 1007.06 1007.59 1008.00 1008.59 1008.65 1009.46 1010.53 1011.06 1011.59 1011.94 1011.77 1011.49 1011.16
1001.97 1001.17 1000.26 999.90 999.28 998.32 997.75 997.46 997.42 998.13 998.82 999.84 1000.16 1000.29 1001.34 1002.11 1002.67 1004.18 1005.36 1006.45 1006.87 1007.13 1007.62 1008.07 1009.28 1009.47 1010.07 1011.01 1011.65 1012.05 1011.97 1011.63 1011.46
1001.42 1000.94 1000.19 998.97 998.17 997.24 996.76 996.48 996.93 997.45 997.70 998.17 999.25 1000.02 1000.45 1002.23 1003.43 1004.50 1005.57 1006.71 1007.98 1008.29 1009.01 1008.27 1009.21 1010.11 1010.01 1010.48 1010.94 1012.22 1012.20 1011.96 1011.37
1001.55 1000.73 999.76 998.99 997.90 996.91 996.08 995.92 996.43 996.82 997.05 997.21 998.10 1000.15 1001.05 1002.16 1003.25 1004.33 1005.58 1006.60 1008.91 1010.06 1010.59 1008.63 1009.99 1010.26 1010.17 1010.91 1011.43 1012.47 1012.63 1012.47 1012.07
1001.18 1000.09 998.98 998.31 997.56 996.57 995.81 995.88 996.16 996.45 997.17 997.97 998.65 999.72 1001.20 1001.46 1001.73 1004.19 1004.77 1004.15 1006.40 1007.52 1009.09 1011.02 1010.36 1010.75 1010.89 1011.42 1012.14 1012.81 1013.17 1013.04 1013.02
1000.55 999.93 999.35 998.47 997.84 996.89 996.65 996.51 996.60 997.21 998.02 998.55 999.08 999.99 1001.46 1002.17 1003.47 1004.45 1005.82 1005.44 1006.64 1007.64 1009.20 1009.90 1010.26 1010.42 1011.08 1011.80 1012.42 1013.20 1013.80 1013.67 1013.77
1000.21 999.62 999.07 998.56 998.11 997.83 997.73 997.40 997.38 998.23 998.75 999.16 999.66 1000.29 1001.74 1002.82 1003.89 1005.34 1006.24 1006.54 1006.94 1008.15 1009.34 1009.73 1010.32 1010.81 1011.61 1012.32 1012.77 1013.17 1013.50 1013.61 1013.52
1000.20 999.55 999.17 998.72 998.68 998.86 998.71 998.43 998.43 999.03 999.33 999.97 1000.60 1000.91 1002.47 1003.85 1004.78 1005.93 1007.08 1008.10 1008.58 1009.51 1010.60 1010.51 1010.99 1011.88 1012.23 1012.57 1013.17 1014.21 1014.63 1014.38 1013.88
1000.35 999.89 999.60 999.43 999.39 999.53 999.66 999.61 999.68 999.86 999.88 1000.60 1001.41 1002.68 1004.15 1005.09 1005.48 1006.32 1007.19 1008.29 1010.17 1011.39 1011.60 1011.95 1012.49 1013.10 1013.05 1013.89 1014.23 1014.79 1014.83 1014.71 1014.70
1000.84 1000.48 1000.10 1000.02 1000.08 1000.25 1000.12 1000.02 1000.30 1000.90 1000.88 1001.33 1001.98 1003.78 1005.32 1006.52 1007.45 1007.59 1007.84 1008.26 1009.29 1011.27 1013.53 1013.24 1013.71 1014.35 1014.22 1014.15 1014.51 1014.70 1014.68 1014.43 1014.50
Wind_Speed
19 19 17 18 20 19 18 19 20 18 17 16 16 16 17 14 15 10 10 11 9 8 8 7 5 4 6 7 6 4 4 5 5
15 19 18 19 17 18 18 19 21 20 18 17 17 18 15 14 13 14 12 12 10 9 9 8 6 6 6 8 6 5 4 5 6
11 15 17 17 16 18 18 20 19 20 20 19 19 18 16 15 16 14 13 12 12 11 10 9 8 8 7 8 6 6 6 5 5
10 14 16 16 17 17 20 18 18 20 19 19 18 18 17 16 15 16 14 14 13 12 12 11 10 10 9 8 8 7 7 6 5
6 13 17 18 17 16 16 17 19 18 18 19 20 16 15 17 15 14 16 15 15 14 14 13 11 10 9 8 7 6 7 7 6
9 11 15 17 18 17 16 17 16 16 17 20 19 17 18 16 17 16 17 17 16 14 14 13 12 11 10 9 8 7 6 4 5
14 9 12 15 17 18 15 16 16 16 17 17 18 18 18 17 18 19 17 16 15 15 14 12 11 12 11 11 11 10 9 7 4
16 15 8 9 14 12 12 13 13 15 17 15 15 16 17 17 17 15 15 14 14 13 12 10 10 12 11 9 9 7 8 5 7
15 14 15 14 11 14 13 15 16 15 16 16 17 17 17 15 14 14 15 14 13 11 10 11 11 7 6 8 7 8 12 11 7
13 18 18 15 13 14 15 16 14 17 16 16 17 16 15 15 15 15 14 13 13 13 13 11 9 9 10 6 4 4 7 7 6
18 20 19 18 16 15 13 15 17 14 16 15 16 16 17 17 16 15 14 14 14 14 12 12 13 8 6 3 2 3 6 6 4
20 22 21 18 18 19 15 14 12 15 15 16 17 19 17 16 16 15 16 15 15 13 13 12 4 6 9 6 4 3 1 0 2
25 22 20 21 23 22 19 12 13 16 17 18 18 16 15 11 11 14 14 12 8 8 4 9 6 6 8 7 6 10 4 3 2
21 21 25 22 21 19 17 11 15 16 16 19 13 11 14 15 16 16 14 14 9 7 5 3 5 6 7 10 7 9 11 9 3
23 23 24 23 19 15 12 8 13 14 12 10 15 18 16 18 21 15 13 17 13 13 10 5 7 8 7 7 9 8 10 11 11
21 21 18 16 15 11 6 7 10 9 11 15 17 18 17 17 14 13 8 13 13 11 8 7 8 6 6 5 5 5 7 11 9
18 17 15 12 10 5 2 3 6 11 14 15 17 18 18 16 17 14 13 11 10 10 8 7 5 6 6 5 5 4 4 3 3
18 17 13 4 2 4 5 8 11 10 12 15 16 19 18 17 15 15 14 14 10 10 10 7 7 6 5 4 4 6 5 5 5
14 14 6 5 6 7 8 12 13 12 16 17 18 18 14 10 12 12 13 14 15 21 19 20 18 14 7 8 10 6 6 8 7
10 10 4 7 9 9 10 14 16 15 17 17 18 17 12 9 7 10 11 11 12 13 10 14 12 10 12 14 9 8 8 8 6
Wind_Direction
210 206 206 204 207 202 199 198 198 198 197 205 200 203 205 205 208 214 220 221 227 233 238 241 255 261 274 266 261 264 267 269 277
205 201 197 205 208 200 197 199 201 197 197 205 202 205 204 207 208 214 218 219 219 229 238 245 251 255 265 262 264 260 264 267 268
216 206 199 203 205 203 203 204 201 203 202 200 200 205 204 206 207 207 214 216 220 222 228 231 234 236 242 258 258 265 269 261 261
218 212 217 211 200 205 207 201 199 202 202 202 203 204 204 206 206 206 208 216 218 219 225 223 225 231 240 239 246 253 244 238 272
255 224 213 211 214 205 196 197 198 198 199 202 206 203 198 204 202 202 209 216 216 215 219 219 219 220 225 238 254 253 253 279 285
336 257 224 216 208 211 203 198 197 195 195 205 204 198 202 205 204 203 212 215 217 212 216 220 221 219 223 240 245 243 245 263 281
349 324 262 224 218 213 205 205 197 196 198 204 202 197 203 202 204 206 209 212 211 211 211 215 218 219 221 221 222 225 223 180 202
347 3 345 246 238 232 209 204 200 199 206 198 196 193 197 198 203 206 203 202 203 204 204 208 210 214 214 219 220 216 212 195 164
342 2 5 351 296 250 230 218 205 198 199 196 190 193 195 192 190 191 196 193 190 186 185 193 205 208 214 213 228 193 201 166 158
350 340 336 330 322 304 262 230 212 213 200 183 192 191 189 189 188 191 193 181 173 171 180 175 164 182 191 199 208 194 177 154 152
340 333 326 321 316 306 298 262 227 203 193 195 189 193 190 186 187 187 173 166 164 169 166 165 179 163 128 123 216 173 153 158 154
334 324 315 306 310 303 292 266 211 190 180 188 193 191 192 190 177 169 157 159 176 165 168 172 113 119 130 149 146 187 62 96 184
321 318 316 315 312 304 295 270 208 190 189 182 198 199 179 168 157 143 149 131 132 145 127 125 138 131 134 118 117 30 354 244 238
314 312 315 315 308 299 291 265 211 201 190 199 174 154 148 135 144 139 125 103 61 43 17 48 122 115 104 87 72 57 39 24 252
314 315 321 322 310 303 293 231 206 198 193 152 139 137 143 144 142 150 160 124 127 134 137 193 146 136 118 97 90 63 62 55 48
310 313 317 320 312 301 279 225 207 179 135 139 132 132 139 135 128 121 127 108 127 107 153 158 162 150 128 108 97 97 73 55 30
306 306 314 320 304 281 17 120 125 132 142 143 138 129 124 120 115 111 110 101 101 121 150 137 123 114 106 108 102 73 36 12 355
294 303 304 357 61 122 113 117 111 123 124 126 122 117 112 113 107 106 95 70 63 89 52 61 105 94 96 111 105 67 42 16 15
287 287 263 128 126 113 102 100 95 107 112 114 110 105 110 112 113 110 104 101 91 57 69 66 61 47 68 93 89 98 65 56 55
298 263 192 105 103 107 110 104 105 105 104 99 99 98 94 90 92 107 118 110 106 109 79 79 73 67 63 59 75 68 57 57 61